Regional Weather Roundup
Issued by NWS Albany, NY

Home | Current Version | Previous Version | Graphics & Text | Print | Product List | Glossary On
Versions: 1 2 3 4 5 6 7 8 9 10 11 12 13 14 15 16 17 18 19 20 21 22 23 24 25 26 27 28 29 30 31 32 33 34 35 36 37 38 39 40 41 42 43 44 45 46 47 48 49 50
000
ASUS41 KALY 210910
RWRALY

NEW YORK STATE HOURLY WEATHER ROUNDUP
NATIONAL WEATHER SERVICE ALBANY NY
400 AM EST SUN DEC 21 2014

NOTE: "FAIR" INDICATES FEW OR NO CLOUDS BELOW 12,000 FEET WITH NO
SIGNIFICANT WEATHER AND/OR NO OBSTRUCTIONS TO VISIBILITY.

NYZ032-033-038>043-046>054-057>066-NYZ062>081-211000-
EAST


CITY           SKY/WX    TMP DP  RH WIND       PRES   REMARKS
ALBANY         FLURRIES  28  20  71 N5        30.31S WCI  23
GLENS FALLS    CLOUDY    25  20  81 CALM      30.31S
POUGHKEEPSIE   CLOUDY    29  24  82 N3        30.29R
NEWBURGH       CLOUDY    27  25  93 MISG      30.28  FOG
MONTGOMERY     CLOUDY    28  24  85 N3        30.28R
WHITE PLAINS   MOCLDY    29  24  82 NW6       30.25S WCI  23
ISLIP          CLOUDY    33  25  72 NW6       30.25S WCI  28
NEW YORK CITY  CLOUDY    32  23  69 NW6       30.28S WCI  26
CENTRAL PARK   CLOUDY    31  22  69 NW3       30.30S
$$

NYZ005>009-017-018-044>046-055-056-211000-
CENTRAL


CITY           SKY/WX    TMP DP  RH WIND       PRES   REMARKS
FULTON         CLOUDY    26  20  77 SE3       30.29S
SYRACUSE       CLOUDY    26  23  88 NE3       30.29S
ROME           CLOUDY    26  20  77 SE3       30.31S
ELMIRA         CLOUDY    29  21  72 CALM      30.26S
BINGHAMTON     CLOUDY    24  20  84 CALM      30.22R
MONTICELLO     CLOUDY    25  25 100 W3        30.23S
$$

NYZ026>034-041>043-211000-
NORTH


CITY           SKY/WX    TMP DP  RH WIND       PRES   REMARKS
WATERTOWN      CLOUDY    25  19  78 CALM      30.30S
FORT DRUM      NOT AVBL
MASSENA        CLOUDY    13  10  88 E7        30.36S FOG     WCI   3
SARANAC LAKE   FOG       15 N/A N/A CALM      30.20F VSB 1/4
PLATTSBURGH    CLOUDY    16  15  96 N7        30.35S WCI   6
$$

NYZ001>004-010>016-019>021-211000-
WEST


CITY           SKY/WX    TMP DP  RH WIND       PRES   REMARKS
NIAGARA FALLS  CLOUDY    26  23  88 CALM      30.27S
BUFFALO        CLOUDY    29  23  78 CALM      30.26F
DUNKIRK        CLOUDY    29  23  78 S7        30.28S WCI  22
JAMESTOWN      CLOUDY    25  19  80 S6        30.22S WCI  18
WELLSVILLE     CLOUDY    24  21  88 CALM      30.20S
ROCHESTER      CLOUDY    29  23  78 SW3       30.28S
PENN YAN       CLOUDY    29  21  72 W3        30.26S
$$

             KEY
       WCI = WIND CHILL INDEX
       VSB = VISIBILITY
       HX  = HEAT INDEX
$$


USA.gov is the U.S. government's official web portal to all federal, state and local government web resources and services.